This demonstration page uses our WeatherBlox Daily Observations layout. Learn more.

Hourly Observations for March 6, 2016

Temp ( °F °C ) Dew Point ( °F °C ) Humidity (%) Winds ( mph kmh ) Pressure ( in mb ) Visibility ( mi km ) Precip ( " mm )
12:15 am 00:15 Cloudy 37 3 32 0 81 81 Calm 30.21 1023 10 16.09344 0 0
12:35 am 00:35 Cloudy 37 3 32 0 81 81 Calm 30.21 1023 10 16.09344 0 0
12:55 am 00:55 Cloudy 37 3 32 0 81 81 Calm 30.24 1024 10 16.09344 0 0
1:15 am 01:15 Cloudy 37 3 32 0 81 81 Calm 30.24 1024 10 16.09344 0 0
1:35 am 01:35 Cloudy 37 3 32 0 81 81 Calm 30.24 1024 10 16.09344 0 0
1:55 am 01:55 Cloudy with Light Rain 37 3 34 1 87 87 S 3 6 30.24 1024 10 16.09344 0 0
2:15 am 02:15 Cloudy with Light Snow 37 3 34 1 87 87 S 5 7 30.24 1024 5 8.04672 0 0
2:35 am 02:35 Cloudy with Light Snow 36 2 36 2 100 100 S 3 6 30.24 1024 4 6.437376 0.01 0.254
2:55 am 02:55 Cloudy with Light Snow 36 2 36 2 100 100 Calm 30.24 1024 4 6.437376 0.02 0.508
3:15 am 03:15 Cloudy with Light Snow 36 2 36 2 100 100 Calm 30.24 1024 4 6.437376 0 0
3:35 am 03:35 Cloudy with Light Snow 34 1 34 1 100 100 Calm 30.21 1023 4 6.437376 0 0
3:55 am 03:55 Mostly Cloudy with Scattered Snow Showers 34 1 34 1 100 100 Calm 30.21 1023 3 4.828032 0 0
4:15 am 04:15 Partly Cloudy with Mist and Fog 34 1 34 1 100 100 Calm 30.21 1023 3 4.828032 0 0
4:35 am 04:35 Mostly Cloudy with Mist and Fog 34 1 34 1 100 100 Calm 30.24 1024 3 4.828032 0 0
4:55 am 04:55 Cloudy with Mist and Fog 34 1 34 1 100 100 N 3 6 30.24 1024 4 6.437376 0 0
5:15 am 05:15 Cloudy with Mist and Fog 34 1 34 1 100 100 N 5 7 30.24 1024 3 4.828032 0 0
5:35 am 05:35 Cloudy with Mist and Fog 34 1 34 1 100 100 N 5 7 30.27 1025 3 4.828032 0 0
5:55 am 05:55 Cloudy with Mist and Fog 34 1 34 1 100 100 N 3 6 30.27 1025 4 6.437376 0.01 0.254
6:15 am 06:15 Cloudy with Mist and Fog 36 2 36 2 100 100 Calm 30.27 1025 4 6.437376 0 0
6:35 am 06:35 Cloudy with Mist and Fog 36 2 36 2 100 100 NW 3 6 30.27 1025 4 6.437376 0 0
6:55 am 06:55 Cloudy with Mist and Fog 36 2 36 2 100 100 NNW 6 9 30.3 1026 2.5 4.02336 0 0
7:15 am 07:15 Cloudy with Mist and Fog 36 2 36 2 100 100 Calm 30.3 1026 3 4.828032 0 0
7:35 am 07:35 Cloudy with Mist and Fog 36 2 36 2 100 100 Calm 30.3 1026 4 6.437376 0 0
7:55 am 07:55 Cloudy with Mist and Fog 36 2 36 2 100 100 NNW 3 6 30.3 1026 4 6.437376 0 0
8:15 am 08:15 Partly Cloudy with Mist and Fog 36 2 36 2 100 100 Calm 30.3 1026 4 6.437376 0 0
8:35 am 08:35 Partly Cloudy with Mist and Fog 37 3 37 3 100 100 Calm 30.33 1027 5 8.04672 0 0
8:55 am 08:55 Mostly Cloudy with Mist and Fog 39 4 37 3 93 93 Calm 30.33 1027 5 8.04672 0 0
9:15 am 09:15 Cloudy 41 5 39 4 93 93 Calm 30.33 1027 10 16.09344 0 0
9:35 am 09:35 Cloudy 43 6 39 4 87 87 NNW 5 7 30.33 1027 10 16.09344 0 0
9:55 am 09:55 Cloudy 43 6 37 3 81 81 N 5 7 30.33 1027 10 16.09344 0 0
10:15 am 10:15 Mostly Cloudy 43 6 37 3 81 81 NNW 7 11 30.33 1027 10 16.09344 0 0
10:35 am 10:35 Cloudy 45 7 37 3 76 76 NW 3 6 30.33 1027 10 16.09344 0 0
10:55 am 10:55 Cloudy 45 7 37 3 76 76 NNW 8 13 30.33 1027 10 16.09344 0 0
11:15 am 11:15 Cloudy 45 7 37 3 76 76 NW 6 9 30.33 1027 10 16.09344 0 0
11:35 am 11:35 Cloudy 45 7 37 3 76 76 NW 6 9 30.33 1027 10 16.09344 0 0
11:55 am 11:55 Cloudy 45 7 36 2 71 71 NNW 3 6 30.33 1027 10 16.09344 0 0
12:15 pm 12:15 Cloudy 46 8 37 3 71 71 NW 6 9 30.33 1027 10 16.09344 0 0
12:35 pm 12:35 Cloudy 46 8 36 2 66 66 NNW 8 13 30.33 1027 10 16.09344 0 0
12:55 pm 12:55 Cloudy 48 9 36 2 62 62 NNW 5 7 30.33 1027 10 16.09344 0 0
1:15 pm 13:15 Mostly Cloudy 48 9 34 1 58 58 N 7 11 30.33 1027 10 16.09344 0 0
1:35 pm 13:35 Mostly Cloudy 48 9 34 1 58 58 NW 9 15 30.3 1026 10 16.09344 0 0
1:55 pm 13:55 Cloudy 48 9 32 0 54 54 NNW 10 17 30.3 1026 10 16.09344 0 0
2:15 pm 14:15 Cloudy 50 10 32 0 50 50 NW 10 17 30.3 1026 10 16.09344 0 0
2:35 pm 14:35 Mostly Cloudy 50 10 34 1 54 54 NW 9 15 30.3 1026 10 16.09344 0 0
2:55 pm 14:55 Partly Cloudy 50 10 32 0 50 50 N 7 11 30.3 1026 10 16.09344 0 0
3:15 pm 15:15 Mostly Cloudy 50 10 32 0 50 50 NW 12 19 30.3 1026 10 16.09344 0 0
3:35 pm 15:35 Mostly Cloudy 52 11 32 0 47 47 WNW 8 13 30.3 1026 10 16.09344 0 0
3:55 pm 15:55 Partly Cloudy 50 10 32 0 50 50 NNW 8 13 30.3 1026 10 16.09344 0 0
4:15 pm 16:15 Sunny 48 9 32 0 54 54 NW 5 7 30.3 1026 10 16.09344 0 0
4:35 pm 16:35 Sunny 50 10 32 0 50 50 NW 5 7 30.3 1026 10 16.09344 0 0
4:55 pm 16:55 Partly Cloudy 50 10 32 0 50 50 NW 7 11 30.3 1026 10 16.09344 0 0
5:15 pm 17:15 Partly Cloudy 48 9 32 0 54 54 NW 5 7 30.3 1026 10 16.09344 0 0
5:35 pm 17:35 Sunny 48 9 32 0 54 54 Calm 30.3 1026 10 16.09344 0 0
5:55 pm 17:55 Sunny 46 8 32 0 57 57 Calm 30.3 1026 10 16.09344 0 0
6:15 pm 18:15 Clear 46 8 32 0 57 57 Calm 30.3 1026 10 16.09344 0 0
6:35 pm 18:35 Clear 45 7 32 0 61 61 Calm 30.3 1026 10 16.09344 0 0
6:55 pm 18:55 Clear 45 7 32 0 61 61 ENE 3 6 30.3 1026 10 16.09344 0 0
7:15 pm 19:15 Clear 43 6 32 0 66 66 ENE 3 6 30.3 1026 10 16.09344 0 0
7:35 pm 19:35 Clear 41 5 32 0 70 70 Calm 30.3 1026 10 16.09344 0 0
7:55 pm 19:55 Clear 37 3 32 0 81 81 Calm 30.3 1026 10 16.09344 0 0
8:15 pm 20:15 Clear 37 3 34 1 87 87 Calm 30.33 1027 10 16.09344 0 0
8:35 pm 20:35 Clear 37 3 34 1 87 87 Calm 30.33 1027 10 16.09344 0 0
8:55 pm 20:55 Clear 36 2 32 0 87 87 Calm 30.33 1027 10 16.09344 0 0
9:15 pm 21:15 Clear 36 2 32 0 87 87 SSW 3 6 30.33 1027 10 16.09344 0 0
9:35 pm 21:35 Clear 36 2 32 0 87 87 SW 3 6 30.33 1027 10 16.09344 0 0
9:55 pm 21:55 Clear 34 1 32 0 93 93 SW 3 6 30.33 1027 10 16.09344 0 0
10:15 pm 22:15 Clear 34 1 32 0 93 93 SSW 3 6 30.33 1027 10 16.09344 0 0
10:35 pm 22:35 Clear 36 2 32 0 87 87 Calm 30.33 1027 10 16.09344 0 0
10:55 pm 22:55 Clear 34 1 32 0 93 93 Calm 30.33 1027 10 16.09344 0 0
11:15 pm 23:15 Clear 32 0 32 0 100 100 Calm 30.33 1027 10 16.09344 0 0
11:35 pm 23:35 Clear 32 0 32 0 100 100 Calm 30.33 1027 10 16.09344 0 0
11:55 pm 23:55 Clear 32 0 32 0 100 100 Calm 30.33 1027 10 16.09344 0 0

Powered by AerisWeather